Location: B�rgermoos
(47.6500°N, 9.0667°E)
Time: 04:30:31
(UTC+00:00)

Meteor 1-15 Rocket - Pass Details

Date: 18 September 2020
Orbit: 840 x 907 km, 81.2° (Epoch: 29 October)

Event Time Altitude Azimuth Distance (km) Brightness Sun altitude
Rises 19:50:49 0° 196° (SSW) 3,393 7.2 -23.5°
Reaches altitude 10° 19:53:13 10° 198° (SSW) 2,468 6.5 -23.8°
Maximum altitude 19:58:48 72° 283° (WNW) 904 4.4 -24.6°
Drops below altitude 10° 20:04:32 10° 8° (N) 2,526 7.0 -25.4°
Sets 20:07:01 0° 11° (N) 3,479 7.7 -25.8°
